YSSYYWLM

Guest
Details From YSSY - Sydney Intl
To YWLM - Williamtown
Flight Number -
Tags generated
Created
Modified
Stats Distance 77 nm / 142 km
Max Altitude 100 ft / 30 m
Waypoints 3
Social Downloads 7
Likes 0
Share VATSIM

Download

Looking for another format? Having issues loading an existing format? Contact us
Advertisement - Login to hide

Notes

Basic altitude profile: - Ascent Rate: 2500ft/min - Ascent Speed: 250kts - Cruise Altitude: 35000ft - Cruise Speed: 420kts - Descent Rate: 1500ft/min - Descent Speed: 250kts

Route

YSSY WLM YWLM

ID Type Via Altitude Latitude Longitude Leg Dist Tot Dist Heading (true) Name
O YSSY APT - 0 ft / 0 m -33.94927˚ 151.18135˚ - 0 nm - Sydney Intl
WLM NDB - 100 ft / 30 m -32.80335˚ 151.82878˚ 76 nm 76 nm 25° / 25° WILLIAMTOWN NDB
O YWLM APT - 0 ft / 0 m -32.79588˚ 151.83480˚ 0 nm 76 nm 34° / 34° Williamtown

Altitude Profile

Advertisement - Login to hide

YSSY

Details ICAO YSSY (SYD)
Name Sydney Intl
Region Australia
Timezone Australia/Sydney (UTC+10.0)
Stats Elevation 21 ft / 6 m (AMSL)
Location -33.949273° 151.181347°
Runways 3
Magnetic Variation 12.604° E

METAR

YSSY 220100Z 26014KT CAVOK 21/06 Q1019 NOSIG

Decode

TAF

TAF YSSY 212307Z 2200/2306 25013KT CAVOK FM221200 23008KT 9999 FEW035 FM230200 12008KT CAVOK FM230500 06008KT CAVOK

Decode

Departure Runways

ID Width Length Bearing (true) Bearing (mag) Surface Threshold Offset Overrun Length
07 148 ft / 45 m 8,285 ft / 2,525 m 74.13° 61.53° Asphalt 0 ft / 0 m 0 ft / 0 m
16L 148 ft / 45 m 8,018 ft / 2,444 m 167.81° 155.21° Asphalt 758 ft / 231 m 0 ft / 0 m
16R 148 ft / 45 m 13,033 ft / 3,973 m 167.86° 155.26° Asphalt 279 ft / 85 m 0 ft / 0 m
25 148 ft / 45 m 8,285 ft / 2,525 m 254.12° 241.52° Asphalt 324 ft / 99 m 0 ft / 0 m
34L 148 ft / 45 m 13,033 ft / 3,973 m 347.85° 335.25° Asphalt 0 ft / 0 m 0 ft / 0 m
34R 148 ft / 45 m 8,018 ft / 2,444 m 347.81° 335.21° Asphalt 125 ft / 38 m 0 ft / 0 m

YWLM

Details ICAO YWLM (NTL)
Name Williamtown
Region Australia
Timezone Australia/Sydney (UTC+10.0)
Stats Elevation 31 ft / 9 m (AMSL)
Location -32.795878° 151.834796°
Runways 1
Magnetic Variation 12.391° E

METAR

YWLM 220100Z 29017KT CAVOK 19/07 Q1019 FM0100 28015G25KT CAVOK FM0100 MOD TURB BLW 5000FT

Decode

TAF

TAF AMD YWLM 212313Z 2200/2224 28015G26KT CAVOK FM220300 27014KT CAVOK FM220700 27007KT CAVOK FM221000 23010KT 9999 SCT025 SCT040 FM221400 28010KT 9999 SCT020 BKN030

Decode

Destination Runways

ID Width Length Bearing (true) Bearing (mag) Surface Threshold Offset Overrun Length
12 148 ft / 45 m 8,001 ft / 2,439 m 130.44° 118.05° Asphalt 0 ft / 0 m 1,000 ft / 305 m
30 148 ft / 45 m 8,001 ft / 2,439 m 310.43° 298.04° Asphalt 0 ft / 0 m 1,000 ft / 305 m

Approach Navaids

Runway Type Ident Frequency Range Bearing (true) Bearing (mag) Slope Elevation
12 Localiser IWM 110.50 MHz 18 nm / 33 km 130.68° 118.29° - 31 ft / 9 m (AMSL)
12 Glidescope IWM 110.50 MHz 10 nm / 19 km 130.44° 118.05° 3.00° 31 ft / 9 m (AMSL)

Popular Alternatives